Weather in Kharitonovo

Russia / Arkhangel'skaya Oblast'     61°24′07″N   47°29′57″E
temp.,
°C
wind,
m/s
gust,
m/s
humid.,
%
clouds,
%
prec.,
mm/h
press.,
hPa
HPBL,
m
23 january, sat
sat2300:00−21ese3995100 0.0 1023329
03:00−20se4993100 0.0 1022384
06:00−18se41095100 0.5 1021486
09:00−18se41096100 1.8 1019501
12:00−17se51093100 0.4 1019537
15:00−16se4895100 1.4 1018547
18:00−17se41094100 0.3 1017484
21:00−17se4994100 0.6 1016458
24 january, sun
sun2400:00−17se3895100 0.2 1018389
03:00−17se4895100 0.5 1017360
06:00−16se3795100 0.4 1017323
09:00−12s2397100 0.9 101486
12:00−13sse2594100 0.3 1017258
15:00−13se2297100 0.3 101783
18:00−2s2598100 0.2 1015198
21:00+1sw3998100 0.2 1015491
25 january, mon
mon2500:00+1ssw3998100 0.0 1015401
03:00−4se2597100 0.6 1018169
06:00+1ssw3998100 0.0 1015405
09:00−1sse369890 0.4 1017212
12:00+1s2799100 0.4 1017212
15:00+1ssw3999100 0.6 1015278
18:00+1ssw31199100 0.8 1015375
21:00+1ssw2799100 0.2 1017233
26 january, tue
tue2600:00+1ssw31099100 0.1 1017347
03:00+1ssw2898100 0.1 1017279
06:00+1ssw2998100 0.9 1017319
09:00−3s3996100 0.5 1018365
12:00−2ssw3895100 0.1 1018466
15:00−4s269598 0.3 1017192
18:00−4ssw2697100 0.2 1018300
21:00−5se239797 0.1 101795
27 january, wed
wed2700:00−5s229899 0.1 101857
03:00−5se229893 0.1 101749
06:00−5ese259796 0.1 1016158
09:00−3sse489698 0.1 1015522
12:00−4sse4893100 0.1 1014600
15:00−5ese259691 0.1 1018143
18:00−7se279795 0.0 1018186
21:00−3se31192100 0.4 1011609